Provo, UT

10:45 AM MST on November 18, 2019 (GMT -0700)
Provo Municipal

Weather History for KPVU - September, 2019

Change the Weather History Date:

Friday, September 20, 2019

  Actual Average Record
Temperature  
Mean Temperature 52 °F -  
Max Temperature 57 °F 72 °F 87 °F (2016)
Min Temperature 42 °F 45 °F 38 °F (1983)
Degree Days  
Heating Degree Days 14    
Growing Degree Days 2 (Base 50)    
Moisture  
Dew Point 41 °F    
Average Humidity 69    
Maximum Humidity 92    
Minimum Humidity 47    
Precipitation  
Precipitation 0.13 in - - ()
Sea Level Pressure  
Sea Level Pressure 29.95 in    
Wind  
Wind Speed 9 mph (ESE)    
Max Wind Speed 15 mph    
Max Gust Speed 20 mph    
Visibility 10 miles    
Events Rain , Thunderstorm    
Averages and records for this station are not official NWS values.
T = Trace of Precipitation, MM = Missing Value Source: NWS Daily Summary

Daily Weather History Graph

Daily Weather History Graph

Search for Another Location

Airport or City:

Astronomy

Sep. 20, 2019 Rise Set
Actual Time 7:12 AM MDT 7:27 PM MDT
Civil Twilight 6:45 AM MDT 7:54 PM MDT
Nautical Twilight 6:13 AM MDT 8:26 PM MDT
Astronomical Twilight 5:40 AM MDT 8:58 PM MDT
Moon 11:19 PM MDT (9/20) 1:21 PM MDT (9/20)
Length of Visible Light 13h 09m
Length of Day
12h 15m
Waning Gibbous, 64% of the Moon is Illuminated
Sep 20
Waning Gibbous
Sep 21
Last Quarter
Sep 28
New
Oct 5
First Quarter
Oct 13
Full

Hourly Weather History & Observations

Time (MDT) Temp. Windchill Dew Point Humidity Pressure Visibility Wind Dir Wind Speed Gust Speed Precip Events Conditions
12:56 AM 57.0 °F - 37.9 °F 49% 29.75 in 10.0 mi North 13.8 mph - N/A   Clear
1:56 AM 57.0 °F - 37.0 °F 47% 29.75 in 10.0 mi NNW 15.0 mph - N/A   Clear
2:56 AM 54.0 °F - 39.0 °F 57% 29.74 in 10.0 mi East 5.8 mph - N/A   Partly Cloudy
3:56 AM 53.1 °F - 39.0 °F 59% 29.75 in 10.0 mi East 8.1 mph - N/A   Scattered Clouds
4:56 AM 53.1 °F - 39.0 °F 59% 29.73 in 10.0 mi ESE 6.9 mph - 0.00 in   Scattered Clouds
5:56 AM 51.1 °F - 39.0 °F 63% 29.77 in 10.0 mi ENE 5.8 mph - N/A   Scattered Clouds
6:56 AM 53.1 °F - 37.9 °F 57% 29.82 in 10.0 mi West 13.8 mph - 0.00 in   Overcast
7:56 AM 48.9 °F - 42.1 °F 77% 29.89 in 10.0 mi WSW 13.8 mph 19.6 mph 0.01 in Rain Light Rain
8:56 AM 50.0 °F - 43.0 °F 77% 29.90 in 10.0 mi SSW 8.1 mph - 0.00 in Rain Light Rain
9:26 AM 48.2 °F - 42.8 °F 82% 29.99 in 10.0 mi South 9.2 mph - 0.00 in Rain Light Rain
9:56 AM 50.0 °F - 42.1 °F 74% 29.92 in 7.0 mi ESE 5.8 mph - 0.00 in   Overcast
10:56 AM 52.0 °F - 41.0 °F 66% 29.94 in 10.0 mi Calm Calm - N/A   Mostly Cloudy
11:56 AM 55.0 °F - 39.9 °F 57% 29.94 in 10.0 mi East 8.1 mph - N/A   Mostly Cloudy
12:17 PM 55.4 °F - 39.2 °F 54% 30.02 in 10.0 mi SE 4.6 mph - N/A Thunderstorm Mostly Cloudy
12:35 PM 53.6 °F - 41.0 °F 62% 30.03 in 10.0 mi West 4.6 mph - 0.00 in Rain Light Rain
12:56 PM 48.0 °F - 39.9 °F 74% 29.98 in 4.0 mi WSW 9.2 mph 17.3 mph 0.07 in Rain , Thunderstorm Heavy Rain
1:05 PM 48.2 °F - 39.2 °F 71% 30.04 in 10.0 mi Calm Calm - 0.02 in Rain , Thunderstorm Rain
1:12 PM 48.2 °F - 41.0 °F 76% 30.04 in 10.0 mi East 8.1 mph - 0.04 in Rain , Thunderstorm Rain
1:33 PM 48.2 °F - 44.6 °F 87% 30.03 in 10.0 mi ENE 13.8 mph - 0.04 in   Mostly Cloudy
1:56 PM 53.1 °F - 43.0 °F 69% 29.96 in 10.0 mi ENE 12.7 mph - 0.04 in   Mostly Cloudy
2:56 PM 55.0 °F - 39.9 °F 57% 29.98 in 10.0 mi SW 9.2 mph - 0.00 in   Overcast
3:42 PM 53.6 °F - 42.8 °F 67% 30.06 in 10.0 mi NNE 11.5 mph - 0.00 in Rain Light Rain
3:56 PM 55.9 °F - 42.1 °F 60% 29.99 in 10.0 mi ENE 11.5 mph - 0.00 in   Mostly Cloudy
4:56 PM 54.0 °F - 39.0 °F 57% 30.02 in 9.0 mi SW 5.8 mph - N/A   Mostly Cloudy
5:56 PM 54.0 °F - 44.1 °F 69% 30.03 in 10.0 mi ESE 5.8 mph - 0.01 in   Scattered Clouds
6:56 PM 51.1 °F - 44.1 °F 77% 30.04 in 10.0 mi South 3.5 mph - N/A   Mostly Cloudy
7:56 PM 50.0 °F - 43.0 °F 77% 30.05 in 10.0 mi South 3.5 mph - N/A   Scattered Clouds
8:56 PM 46.0 °F 43.1 °F 43.0 °F 89% 30.07 in 10.0 mi East 5.8 mph - N/A   Partly Cloudy
9:56 PM 46.0 °F - 43.0 °F 89% 30.08 in 10.0 mi Calm Calm - N/A   Clear
10:56 PM 46.0 °F - 43.0 °F 89% 30.09 in 10.0 mi Calm Calm - N/A   Clear
11:56 PM 42.1 °F 39.2 °F 39.9 °F 92% 30.09 in 10.0 mi SSE 4.6 mph - N/A   Clear